Regional Weather Roundup
Issued by NWS

Home | Current Version | Previous Version | Graphics & Text | Print | Product List | Glossary On
Versions: 1 2 3 4 5 6 7 8 9 10 11 12 13 14 15 16 17 18 19 20 21 22 23 24 25 26 27 28 29 30 31 32 33 34 35 36 37 38 39 40 41 42 43 44 45 46 47 48 49 50
000
ASUS43 KLOT 241309
RWRIL

ILLINOIS REGIONAL WEATHER ROUNDUP
NATIONAL WEATHER SERVICE CHICAGO/ROMEOVILLE IL
800 AM CDT MON JUL 24 2017

NOTE: "FAIR" INDICATES FEW OR NO CLOUDS BELOW 12,000 FEET WITH NO
SIGNIFICANT WEATHER AND/OR OBSTRUCTIONS TO VISIBILITY.

* THESE STATIONS ARE NOT UNDER NWS QUALITY CONTROL. THEY ALSO MAY NOT
  REPORT WEATHER SUCH AS PRECIPITATION OR FOG.

ILZ001-002-007-009-015-016-024-241400-
NORTHWEST ILLINOIS

CITY           SKY/WX    TMP DP  RH WIND       PRES   REMARKS
MOLINE         CLOUDY    70  64  81 E8        30.00R
STERLING*      CLOUDY    66  63  88 N9        30.01R
SAVANNA*       CLOUDY    65  59  80 E9        30.03R
$$

ILZ003-004-008-010-011-017-018-241400-
NORTH CENTRAL ILLINOIS

CITY           SKY/WX    TMP DP  RH WIND       PRES   REMARKS
ROCKFORD       MOSUNNY   68  59  73 NE14      30.03R
FREEPORT*      SUNNY     64  58  83 NE12      30.04S
ROCHELLE*      CLOUDY    65  61  86 NE7       30.02S
DE KALB*       MOSUNNY   65  60  85 NE12      30.03R
PERU*          CLOUDY   N/A N/A N/A NE7       30.02R
$$

ILZ005-006-012>014-019>023-241400-
NORTHEAST ILLINOIS

CITY           SKY/WX    TMP DP  RH WIND       PRES   REMARKS
CHICAGO-OHARE  PTSUNNY   68  60  75 N12       29.99S
CHICAGO-MIDWAY PTSUNNY   69  61  75 N12G22    29.99R
AURORA         PTSUNNY   66  61  84 NE12      30.00S
LANSING*       CLOUDY    69  60  71 N10G18    29.99R
JOLIET*        MOSUNNY   70  62  77 NE8       29.99R
WAUKEGAN       CLOUDY    68  61  78 NE15G22   30.00S
DUPAGE AIRPORT MOSUNNY   66  62  87 NE12      30.00R
WHEELING       MOSUNNY   66  63  90 N10G20    30.01R
MORRIS*        CLOUDY    66  63  88 CALM      29.99R
ROMEOVILLE*    MOSUNNY   66  59  76 N12       30.00R
NORTHERLY ISL    N/A     68  60  75 MISG        N/A
$$

LMZ740>746-241400-
SOUTHERN LAKE MICHIGAN

STATION/POSITION SKY/WX   TEMP    WIND        PRES    VSBY  WAVE
                          AIR SEA DIR/SP/G                  HT/PER
                          (F)     (DEG/KT/KT) (MB)    (MI)  (FT/S)
SOUTHERN BUOY              67 70   10/ 19/ 21 1014.6          5/ 6
WILMETTE HARBOR            68 72  360/ 16/ 21   N/A           6/ 6
HARRISON CRIB              69      10/ 20/ 21   N/A
BURNHAM HARBOR             69                   N/A
CALUMET HARBOR             69     350/ 10/ 17 1015.0R
BURNS HARBOR               69      10/ 13/ 17 1015.6R
MICHIGAN CITY              69     350/ 16/ 17   N/A
MICHIGAN CITY 6N           69 74   10/ 12/ 16   N/A           5/ 6
ST. JOSEPH                 69 74   40/ 17/ 21 1014.7R         5/ 6
$$

ILZ025>027-034>036-040-047-049-050-058-095>099-241400-
WEST-CENTRAL ILLINOIS

CITY           SKY/WX    TMP DP  RH WIND       PRES   REMARKS
QUINCY         SUNNY     70  63  78 N7        29.99R
GALESBURG*     CLOUDY    67  67  99 NE5       30.00S FOG
MACOMB*        SUNNY     67  64  91 N6        30.01R
JACKSONVILLE*  MOSUNNY   70  64  82 N6        29.98R
PITTSFIELD*    MOSUNNY   71  65  80 NE3       30.00R
$$

ILZ028>032-037-038-041>044-048-051>054-059>061-241400-
CENTRAL ILLINOIS

CITY           SKY/WX    TMP DP  RH WIND       PRES   REMARKS
PONTIAC        MOSUNNY   68  67  96 NE12      30.00R
BLOOMINGTON    PTSUNNY   68  65  90 NE13      30.00R
DECATUR        MOSUNNY   71  67  87 NE8       29.98R
PEORIA         CLOUDY    70  67  90 NE14      29.98R
LACON*         CLOUDY    67  64  92 NE8       29.99R
LINCOLN*       MOSUNNY   70  69  95 NE5       29.97S
SPRINGFIELD    SUNNY     73  67  81 N6        29.98R
TAYLORVILLE    MOSUNNY   70  67  90 N3        29.97R
$$

ILZ033-039-045-046-055>057-062-063-241400-
EAST-CENTRAL ILLINOIS

CITY           SKY/WX    TMP DP  RH WIND       PRES   REMARKS
CHAMPAIGN      MOSUNNY   71  66  84 NE8       29.98R
RANTOUL*       MOSUNNY   71  67  87 NE7       29.98R
MATTOON        SUNNY     71  68  90 NE7       29.96R
PARIS*         CLOUDY    69  67  93 NE5       29.98R
$$

ILZ079-100>102-241400-
SOUTHWEST ILLINOIS

CITY           SKY/WX    TMP DP  RH WIND       PRES   REMARKS
ALTON          SUNNY     70  68  94 N6        29.97R
BELLEVILLE     SUNNY     74  68  81 N7        29.96R
CAHOKIA*       SUNNY     77  67  71 N6        29.95R
SPARTA*        SUNNY     74  69  86 N3        29.96R
$$

ILZ064>066-069>071-074>076-080>082-084>086-088>090-092>094-241400-
SOUTH-CENTRAL ILLINOIS

CITY           SKY/WX    TMP DP  RH WIND       PRES   REMARKS
CARBONDALE     SUNNY     76  75  97 CALM      29.94R
CAIRO*         PTSUNNY   76  74  93 CALM      29.93S
EFFINGHAM*     SUNNY     73  70  88 N6        29.97R
MARION         MOSUNNY   77  77 100 SE5       29.95R
MT. VERNON     SUNNY     76  71  85 N5        29.94R
CENTRALIA*     SUNNY     75  71  86 N7        29.94S
SALEM*         SUNNY     75  69  82 N3        29.95S
METROPOLIS*    CLOUDY    76  73  92 CALM      29.94S
$$

ILZ067-068-072-073-078-083-087-091-241400-
SOUTHEAST ILLINOIS

CITY           SKY/WX    TMP DP  RH WIND       PRES   REMARKS
LAWRENCEVILLE  SUNNY     76  70  82 NE7       29.94R
FLORA*         SUNNY     76  71  83 N8        29.94S
FAIRFIELD*     SUNNY     75  71  88 N3        29.92S
HARRISBURG*    SUNNY     75  73  94 CALM      29.94S
ROBINSON*      SUNNY     72  70  92 N3        29.95R
CARMI*         SUNNY     75  73  93 CALM      29.93R
$$

ABBREVIATIONS USED IN REMARKS
   TC - TEMPERATURE IN CELSIUS
  WCI - WIND CHILL INDEX
   HX - HEAT INDEX
  VSB - VISIBILITY
$$





USA.gov is the U.S. government's official web portal to all federal, state and local government web resources and services.